Location: Eisingen in Unterfranken
(49.7591°N, 9.8347°E)
Time: 07:46:51
(UTC+01:00)

Envisat - Pass Details

Date: 02 December 2022
Orbit: 763 x 765 km, 98.2° (Epoch: 04 February)

Event Time Altitude Azimuth Distance (km) Brightness Sun altitude
Rises 04:16:27 0° 18° (NNE) 3,246 6.5 -34.7°
Reaches altitude 10° 04:18:51 10° 23° (NNE) 2,315 5.8 -34.4°
Enters shadow 04:21:14 27° 36° (NE) 1,461 4.7 -34.0°
